Weather History for KLOM - February, 2014

Change the Weather History Date:

Wednesday, February 26, 2014

  Actual Average (KPNE) Record (KPNE)
Temperature  
Mean Temperature 23 °F -  
Max Temperature 32 °F 44 °F 66 °F (2002)
Min Temperature 12 °F 28 °F 15 °F (2005)
Degree Days  
Heating Degree Days 42    
Moisture  
Dew Point 12 °F    
Average Humidity 59    
Maximum Humidity 93    
Minimum Humidity 27    
Precipitation  
Precipitation 0.01 in - - ()
Sea Level Pressure  
Sea Level Pressure 29.90 in    
Wind  
Wind Speed 3 mph (West)    
Max Wind Speed 15 mph    
Max Gust Speed 28 mph    
Visibility 8 miles    
Events      
Averages and records for this station are not official NWS values.
T = Trace of Precipitation, MM = Missing Value Source: NWS Daily Summary

Daily Weather History Graph

Daily Weather History Graph

Search for Another Location

Airport or City:

Trip Planner

Search our weather history database for the weather conditions in past years. The results will help you decide how hot, cold, wet, or windy it might be!

Date:

Astronomy

Feb. 26, 2014 Rise Set
Actual Time 6:38 AM EST 5:49 PM EST
Civil Twilight 6:11 AM EST 6:16 PM EST
Nautical Twilight 5:40 AM EST 6:48 PM EST
Astronomical Twilight 5:08 AM EST 7:19 PM EST
Moon 4:23 AM EST (2/26) 3:01 PM EST (2/26)
Length of Visible Light 12h 05m
Length of Day
11h 10m
Waning Crescent, 10% of the Moon is Illuminated
Feb 26
Waning Crescent
Mar 1
New
Mar 8
First Quarter
Mar 16
Full
Mar 23
Last Quarter

Hourly Weather History & Observations

Time (EST) Temp. Windchill Dew Point Humidity Pressure Visibility Wind Dir Wind Speed Gust Speed Precip Events Conditions
12:35 AM 24.8 °F - 15.8 °F 69% 29.98 in 10.0 mi Calm Calm - N/A   Clear
12:50 AM 23.0 °F - 17.6 °F 80% 29.97 in 10.0 mi Calm Calm - N/A   Clear
1:15 AM 23.0 °F - 19.4 °F 86% 29.97 in 10.0 mi Calm Calm - N/A   Clear
1:40 AM 24.8 °F - 17.6 °F 74% 29.96 in 10.0 mi Calm Calm - N/A   Clear
1:55 AM 24.8 °F - 17.6 °F 74% 29.96 in 10.0 mi Calm Calm - N/A   Clear
2:15 AM 24.8 °F - 19.4 °F 80% 29.95 in 10.0 mi Calm Calm - N/A   Clear
2:35 AM 24.8 °F - 19.4 °F 80% 29.94 in 10.0 mi Calm Calm - N/A   Clear
2:55 AM 26.6 °F - 19.4 °F 74% 29.94 in 10.0 mi Calm Calm - N/A   Clear
3:15 AM 26.6 °F - 19.4 °F 74% 29.93 in 10.0 mi Calm Calm - N/A   Clear
3:35 AM 26.6 °F - 17.6 °F 69% 29.93 in 10.0 mi Calm Calm - N/A   Clear
3:55 AM 26.6 °F 22.6 °F 17.6 °F 69% 29.92 in 10.0 mi South 3.5 mph - N/A   Clear
4:15 AM 28.4 °F - 17.6 °F 64% 29.91 in 10.0 mi Calm Calm - N/A   Clear
4:35 AM 28.4 °F - 17.6 °F 64% 29.91 in 10.0 mi Calm Calm - N/A   Clear
4:55 AM 28.4 °F - 17.6 °F 64% 29.90 in 10.0 mi Calm Calm - N/A   Clear
5:15 AM 28.4 °F - 17.6 °F 64% 29.90 in 10.0 mi Calm Calm - N/A   Clear
5:35 AM 28.4 °F - 17.6 °F 64% 29.90 in 10.0 mi Calm Calm - N/A   Clear
5:55 AM 28.4 °F - 17.6 °F 64% 29.90 in 10.0 mi Calm Calm - N/A   Clear
6:15 AM 28.4 °F - 19.4 °F 69% 29.90 in 10.0 mi Calm Calm - N/A   Scattered Clouds
6:35 AM 30.2 °F 24.3 °F 19.4 °F 64% 29.90 in 7.0 mi SW 5.8 mph - N/A   Overcast
6:55 AM 28.4 °F 23.3 °F 21.2 °F 74% 29.90 in 1.8 mi SW 4.6 mph - N/A   Overcast
7:15 AM 28.4 °F 23.3 °F 23.0 °F 80% 29.89 in 1.2 mi SSW 4.6 mph - N/A   Overcast
7:40 AM 28.4 °F 24.6 °F 24.8 °F 86% 29.90 in 1.5 mi SW 3.5 mph - N/A   Overcast
7:55 AM 28.4 °F - 24.8 °F 86% 29.91 in 1.2 mi Calm Calm - N/A   Overcast
8:15 AM 28.4 °F 23.3 °F 26.6 °F 93% 29.91 in 1.0 mi SW 4.6 mph - N/A   Overcast
8:35 AM 30.2 °F 24.3 °F 26.6 °F 86% 29.91 in 1.2 mi SW 5.8 mph - N/A   Overcast
8:55 AM 30.2 °F 26.7 °F 26.6 °F 86% 29.92 in 0.8 mi SW 3.5 mph - N/A   Overcast
9:15 AM 30.2 °F 22.6 °F 26.6 °F 86% 29.93 in 0.8 mi WSW 8.1 mph - N/A   Overcast
9:35 AM 30.2 °F 24.3 °F 26.6 °F 86% 29.93 in 4.0 mi SW 5.8 mph - 0.01 in   Overcast
9:55 AM 30.2 °F 21.9 °F 26.6 °F 86% 29.93 in 4.0 mi WSW 9.2 mph - 0.01 in   Overcast
10:15 AM 30.2 °F 23.4 °F 24.8 °F 80% 29.93 in 7.0 mi WSW 6.9 mph - N/A   Overcast
10:35 AM 30.2 °F 21.9 °F 24.8 °F 80% 29.93 in 0.8 mi WNW 9.2 mph 18.4 mph N/A   Overcast
10:55 AM 28.4 °F 21.2 °F 23.0 °F 80% 29.93 in 2.5 mi WNW 6.9 mph 18.4 mph N/A   Overcast
11:15 AM 30.2 °F 23.4 °F 21.2 °F 69% 29.93 in 7.0 mi West 6.9 mph - N/A   Scattered Clouds
11:35 AM 32.0 °F 24.2 °F 19.4 °F 60% 29.91 in 10.0 mi WNW 9.2 mph 16.1 mph N/A   Scattered Clouds
12:00 PM 32.0 °F 24.8 °F 17.6 °F 55% 29.90 in 10.0 mi West 8.1 mph 17.3 mph N/A   Scattered Clouds
12:15 PM 32.0 °F 24.8 °F 14.0 °F 48% 29.90 in 10.0 mi WNW 8.1 mph 18.4 mph N/A   Scattered Clouds
12:35 PM 32.0 °F 23.6 °F 14.0 °F 48% 29.89 in 10.0 mi NW 10.4 mph 19.6 mph N/A   Clear
12:55 PM 32.0 °F 24.2 °F 12.2 °F 44% 29.88 in 10.0 mi WNW 9.2 mph 20.7 mph N/A   Clear
1:15 PM 32.0 °F 21.6 °F 10.4 °F 41% 29.88 in 10.0 mi WNW 15.0 mph 24.2 mph N/A   Clear
1:35 PM 32.0 °F 21.6 °F 8.6 °F 38% 29.86 in 7.0 mi NW 15.0 mph 27.6 mph N/A   Clear
1:55 PM 32.0 °F 22.1 °F 5.0 °F 32% 29.87 in 10.0 mi West 13.8 mph 24.2 mph N/A   Clear
2:15 PM 32.0 °F 22.1 °F 5.0 °F 32% 29.86 in 10.0 mi WNW 13.8 mph 20.7 mph N/A   Clear
2:35 PM 32.0 °F 22.1 °F 8.6 °F 38% 29.87 in 10.0 mi WNW 13.8 mph 19.6 mph N/A   Clear
2:55 PM 30.2 °F 20.2 °F 5.0 °F 34% 29.86 in 10.0 mi NW 12.7 mph 20.7 mph N/A   Clear
3:15 PM 30.2 °F 21.9 °F 3.2 °F 32% 29.86 in 10.0 mi WNW 9.2 mph 18.4 mph N/A   Clear
3:35 PM 30.2 °F 20.8 °F 3.2 °F 32% 29.85 in 10.0 mi WNW 11.5 mph 21.9 mph N/A   Clear
3:55 PM 30.2 °F 24.3 °F 1.4 °F 29% 29.85 in 10.0 mi NW 5.8 mph - N/A   Clear
4:15 PM 30.2 °F 23.4 °F 1.4 °F 29% 29.85 in 10.0 mi West 6.9 mph - N/A   Clear
4:35 PM 30.2 °F 21.9 °F 1.4 °F 29% 29.85 in 10.0 mi WNW 9.2 mph - N/A   Clear
4:55 PM 28.4 °F 21.2 °F -0.4 °F 29% 29.85 in 10.0 mi NW 6.9 mph - N/A   Clear
5:15 PM 28.4 °F 19.1 °F -2.2 °F 27% 29.85 in 10.0 mi NW 10.4 mph 18.4 mph N/A   Clear
5:35 PM 26.6 °F 20.0 °F -2.2 °F 29% 29.85 in 10.0 mi NW 5.8 mph - N/A   Clear
5:55 PM 26.6 °F 21.2 °F -2.2 °F 29% 29.85 in 10.0 mi NW 4.6 mph - N/A   Clear
6:15 PM 26.6 °F 22.6 °F -2.2 °F 29% 29.86 in 10.0 mi WNW 3.5 mph - N/A   Clear
6:35 PM 26.6 °F - -0.4 °F 31% 29.86 in 10.0 mi Calm Calm - N/A   Clear
6:55 PM 24.8 °F - -0.4 °F 34% 29.86 in 10.0 mi Calm Calm - N/A   Clear
7:15 PM 24.8 °F - -0.4 °F 34% 29.87 in 10.0 mi Calm Calm - N/A   Clear
7:35 PM 24.8 °F - -0.4 °F 34% 29.88 in 10.0 mi Calm Calm - N/A   Clear
7:55 PM 23.0 °F - -0.4 °F 36% 29.87 in 10.0 mi Calm Calm - N/A   Clear
8:10 PM 23.0 °F - -0.4 °F 36% 29.87 in 10.0 mi Calm Calm - N/A   Clear
8:35 PM 23.0 °F - -0.4 °F 36% 29.88 in 10.0 mi Calm Calm - N/A   Clear
8:55 PM 21.2 °F - 1.4 °F 42% 29.88 in 10.0 mi Calm Calm - N/A   Clear
9:15 PM 19.4 °F - 8.6 °F 63% 29.88 in 10.0 mi Calm Calm - N/A   Clear
9:35 PM 19.4 °F - 5.0 °F 54% 29.89 in 10.0 mi Calm Calm - N/A   Clear
9:55 PM 17.6 °F - 6.8 °F 63% 29.89 in 10.0 mi Calm Calm - N/A   Clear
10:15 PM 17.6 °F - 5.0 °F 58% 29.89 in 10.0 mi Calm Calm - N/A   Clear
10:35 PM 17.6 °F - 5.0 °F 58% 29.89 in 10.0 mi Calm Calm - N/A   Clear
10:55 PM 15.8 °F - 8.6 °F 73% 29.89 in 10.0 mi Calm Calm - N/A   Clear
11:15 PM 14.0 °F - 6.8 °F 73% 29.88 in 10.0 mi Calm Calm - N/A   Clear
11:35 PM 14.0 °F - 8.6 °F 79% 29.88 in 10.0 mi Calm Calm - N/A   Clear
11:55 PM 12.2 °F - 8.6 °F 85% 29.87 in 10.0 mi Calm Calm - N/A   Clear